{"data":{"norad_id":59335,"intl_designator":"2024-057R","name":"STARLINK-31588","alt_names":[],"object_type":"PAYLOAD","status":"ACTIVE","operator":null,"country":"US","launch_date":"2024-03-25","launch_site_code":"AFETR","launch_vehicle":null,"mission":null,"orbit_class":"UNKNOWN","rcs_meters":null,"size_class":null,"mass_kg":null,"dimensions":null,"purposes":["comms"],"wikipedia_slug":null,"has_3d_model":false,"image_url":null,"decayed_at":null,"tle_current":{"epoch":"2026-05-25T04:42:18.319968Z","epoch_age_seconds":57840,"freshness":"FRESH","line1":"1 59335U 24057R   26145.19604537  .00000262  00000+0  19044-4 0  9997","line2":"2 59335  43.0023 114.6658 0001335 270.5767  89.4932 15.27576940121540","mean_motion":15.2757694,"eccentricity":0.0001335,"inclination_deg":43.0023,"raan_deg":114.6658,"arg_perigee_deg":270.5767,"mean_anomaly_deg":89.4932,"bstar":1.9044e-5,"rev_number":12154,"period_min":94.266937546203,"perigee_km":482.14228922873,"apogee_km":483.97422836283,"semimajor_km":6861.1952587958,"source":"CELESTRAK","updated_at":"2026-05-25T13:38:18.905856Z"}}}